ARIANE 2 DEB

基本信息
目录编号:
40785
目录名称:
ARIANE 2 DEB
国际标识:
1989-006CE
轨道中心:
EARTH
物体状态:
在轨
发射日期:
1989-01-27 UTC
轨道信息
数据来源: 国际轨道数据
星历时间: 2025-09-11T20:35:55+0800
半长轴: 23407.055km
偏心率: 0.7068185
轨道倾角: 7.968°
近地点辐角: 11.561°
升交点赤经: 30.391°
平近点角: 269.508°
近地点: 484.38km
远地点: 33573.46km
周期: 593.991分钟
每日圈数: 2.424279
详细信息
发射场:
FRGUI
轨道高度:
LEO
数据来源:
AOE Integration Group
参考系:
TEME
时间系统:
UTC
历元类型:
SGP4
2D轨道图
3D轨道图
轨道高度分析图
轨道倾角分析图
轨道综合分析图
查看轨道综合分析图